This is the latest recevied weather packets stored in our database for station/object IW2LSY-11. If no packets are shown the sender has not sent any weather packets the latest 10 day(s).
| Time | Temp. | Humidity | Pressure | Rain* | Wind** | Luminosity | Snow |
|---|---|---|---|---|---|---|---|
| 1777986006 | 17.22° C | 58% | 1013.8 hPa | - | - | 368 W/m² | - |
| 1777985406 | 16.67° C | 59% | 1013.8 hPa | - | - | 369 W/m² | - |
| 1777984805 | 16.67° C | 61% | 1013.8 hPa | - | - | 369 W/m² | - |
| 1777984206 | 17.22° C | 59% | 1013.8 hPa | - | - | 370 W/m² | - |
| 1777983606 | 17.78° C | 57% | 1013.8 hPa | - | - | 370 W/m² | - |
| 1777983006 | 17.78° C | 60% | 1013.9 hPa | - | - | 371 W/m² | - |
| 1777982407 | 17.22° C | 61% | 1013.9 hPa | - | - | 371 W/m² | - |
| 1777981808 | 16.67° C | 67% | 1014 hPa | - | - | 372 W/m² | - |
| 1777981208 | 16.67° C | 65% | 1014 hPa | - | - | 372 W/m² | - |
| 1777980609 | 17.78° C | 64% | 1014 hPa | - | - | 373 W/m² | - |
| 1777980009 | 17.22° C | 65% | 1014.1 hPa | - | - | 373 W/m² | - |
| 1777979409 | 16.11° C | 66% | 1014.1 hPa | - | - | 374 W/m² | - |
| 1777978810 | 16.11° C | 64% | 1014.1 hPa | - | - | 374 W/m² | - |
| 1777978211 | 16.11° C | 68% | 1014.2 hPa | - | - | 374 W/m² | - |
| 1777977611 | 16.11° C | 68% | 1014.3 hPa | - | - | 375 W/m² | - |
| 1777977011 | 16.11° C | 68% | 1014.3 hPa | - | - | 376 W/m² | - |
| 1777976411 | 16.67° C | 66% | 1014.3 hPa | - | - | 378 W/m² | - |
| 1777975812 | 16.67° C | 66% | 1014.4 hPa | - | - | 378 W/m² | - |
| 1777975214 | 16.11° C | 66% | 1014.3 hPa | - | - | 379 W/m² | - |
| 1777974614 | 15.56° C | 68% | 1014.2 hPa | - | - | 380 W/m² | - |
| 1777974015 | 15.56° C | 68% | 1014.2 hPa | - | - | 380 W/m² | - |
| 1777973405 | 15° C | 71% | 1014.1 hPa | - | - | 381 W/m² | - |
| 1777972805 | 14.44° C | 70% | 1014.1 hPa | - | - | 381 W/m² | - |
| 1777972206 | 13.89° C | 73% | 1014.3 hPa | - | - | 382 W/m² | - |
| 1777971606 | 13.33° C | 73% | 1014.3 hPa | - | - | 383 W/m² | - |
* Rain since midnight (hover to see other rain measurements)
** Current wind speed in m/s (hover to see current wind gust speed)